Regional Weather Roundup
Issued by NWS Newport/Morehead, NC

Current Version | Previous Version | Graphics & Text | Print | Product List | Glossary On
Versions: 1 2 3 4 5 6 7 8 9 10 11 12 13 14 15 16 17 18 19 20 21 22 23 24 25 26 27 28 29 30 31 32 33 34 35 36 37 38 39 40 41 42 43 44 45 46 47 48 49 50
168 ASUS42 KMHX 221725 RWRMHX WEATHER ROUNDUP FOR EASTERN NORTH CAROLINA NATIONAL WEATHER SERVICE NEWPORT/MOREHEAD CITY NC 1200 PM EST SUN JAN 22 2017 NOTE: "FAIR" INDICATES FEW OR NO CLOUDS BELOW 12,000 FEET WITH NO SIGNIFICANT WEATHER AND/OR OBSTRUCTIONS TO VISIBILITY NCZ015>017-031-032-045>047-102-103-221800- NORTH COAST CITY SKY/WX TMP DP RH WIND PRES REMARKS EDENTON CLOUDY 57 57 100 CALM 29.60F ELIZABETH CITY CLOUDY 54 53 97 NW5 29.61F FOG KITTY HAWK NOT AVBL MANTEO CLOUDY 56 56 100 W3 29.62F FOG $$ NCZ045>047-081-094-103-104-221800- CENTRAL COAST CITY SKY/WX TMP DP RH WIND PRES REMARKS FRISCO RAIN 60 58 92 W8 29.62F VSB 1 $$ NCZ095-097-098-100-101-221800- SOUTHERN COAST CITY SKY/WX TMP DP RH WIND PRES REMARKS BEAUFORT RAIN 59 58 96 SE3 29.61F FOG CEDAR ISLAND NOT AVBL JACKSONVILLE NOT AVBL PINEY ISLAND NOT AVBL WILMINGTON CLOUDY 61 60 97 W5 29.60R $$ NCZ011>013-027>030-043-044-078>080-089-090>093-098-221800- COASTAL PLAIN CITY SKY/WX TMP DP RH WIND PRES REMARKS AHOSKIE N/A 52 51 99 NE7 29.58F CLINTON CLOUDY 62 61 95 S3 29.60R ELIZABETHTOWN CLOUDY 61 60 97 S7 29.58F GOLDSBORO CLOUDY 59 59 100 NW6 29.57F GREENVILLE CLOUDY 57 55 94 E10 29.56F FOG HAVELOCK CLOUDY 61 59 93 SE6 29.60F KENANSVILLE CLOUDY 63 59 88 S6 29.57R KINSTON CLOUDY 63 61 94 E8 29.55F NEW BERN CLOUDY 62 60 93 SE9 29.53F RICHLANDS CLOUDY 60 59 96 E8 29.54F ROCKY MOUNT CLOUDY 54 54 100 N6 29.59F WASHINGTON CLOUDY 60 56 87 CALM N/A WHITEVILLE CLOUDY 61 59 93 SW3 29.59F $$ AMZ130-135-150-152-154-156-158-170-250-252-270-ANZ085-086-088-633-658-670-221800- MARINE OBSERVATIONS STATION/POSITION TIME TEMP WIND PRES WAVE SWELL AIR SEA DIR/SP/G HT/PER HT/PER (UTC) (F) (DEG/KT/KT) (MB) (FT/S) (FT/S) CHESAPEAKE LIGHT NOT AVBL 64 E VA BEACH 1650 52 57 280/ 14/ 16 1001.7 6/ 7 5/ 7 DUCK 1700 53 46 270/ 7/ 9 1002.0 2 E DUCK 1700 47 N/A 3/12 2/12 OREGON INLET 1700 52 50 180/ 4/ 5 1002.7 13E OREGON INLT NOT AVBL HATTERAS CG 1700 59 54 240/ 5/ 8 1002.4 DIAMOND BUOY 1650 64 73 260/ 12/ 14 1003.5 5/11 3/11 CAPE LOOKOUT 1700 58 CALM / 2 1002.1 BEAUFORT LAB 1700 57 52 130/ 3/ 5 1001.3 30 SE NEW RVR IN 1708 58 64 150/ 8/ 12 1002.0 30 SE NEW RVR IN 1713 64 N/A 4/ 6 2/13 27 SE WRIGHTSVLE 1708 62 67 160/ 12/ 16 1001.2 5 SE WRIGHTSVLE 1708 56 240/ 4/ 8 1002.7 225 S CAPE HAT 1650 73 71 200/ 19/ 23 1006.4 8/ 7 3/13 41 SE CHARLESTON 1650 66 68 230/ 8/ 10 1003.3 5/ 6 5/ 6 $$

USA.gov is the U.S. government's official web portal to all federal, state and local government web resources and services.